[[{"header":{"parameterUnit":"m.s-1","parameterCategory":1,"la1":30.2991,"la2":30.254,"lo1":-89.0895,"lo2":-89.0444,"dx":0.0017,"dy":0.0017,"nx":28,"ny":28,"refTime":"2022-11-26T09:00:00:Z","depth":0,"parameterNumber":2,"parameterNumberName":"U-component_of_WINDS"},"data":[0,0,0,0,0,0,0,0,0,0,0,0,0,0,0,0,0,0,0,0,0,0,0,0,0,0,0,0,0,0,0,0,0,0,0,0,0,0,0,0,0,0,0,0,0,0,0,0,0,0,0,0,0,0,0,0,0,0,4.5901,4.5902,0,4.6012,4.6013,4.6014,4.5978,4.5975,4.5973,4.5971,4.6089,4.6095,4.61,0,0,0,0,0,0,0,0,0,0,0,0,0,4.5664,4.5669,4.5901,4.5902,4.5904,4.6012,4.6013,4.6015,4.5978,4.5975,4.5972,4.5969,4.6088,4.6094,4.6101,0,0,0,0,0,0,0,0,0,0,0,0,0,4.577,4.567,4.5901,4.5898,4.5899,4.6011,4.6013,4.6015,4.5979,4.5975,4.5971,4.5968,4.6086,4.6093,4.6101,4.6224,0,0,4.6126,4.613,0,0,0,0,0,0,0,0,4.5764,4.5779,4.5897,4.5899,4.59,4.5977,4.5973,4.6085,4.598,4.5949,4.597,4.5966,4.6055,4.6066,4.6095,4.623,4.6235,4.6127,4.6132,4.6135,4.6138,0,0,0,0,0,0,0,4.5757,4.5774,4.5945,4.5899,4.5901,4.5894,4.5905,4.5994,4.6021,4.5951,4.5949,4.5962,4.6055,4.6087,4.6097,4.6237,4.6127,4.6134,4.6139,4.6142,4.6482,4.6486,0,0,0,0,0,0,4.5748,4.5768,4.5941,4.5948,4.5822,4.5901,4.5913,4.5956,4.602,4.6026,4.5965,4.596,4.6075,4.6088,4.6101,4.6252,4.6135,4.6143,4.6148,4.6478,4.6483,4.6487,0,0,0,0,0,0,4.5743,4.5764,4.5937,4.5858,4.5879,4.5909,4.5957,4.596,4.5991,4.603,4.6036,4.5992,4.6072,4.609,4.6194,4.6255,4.6147,4.6154,4.6473,4.6479,4.6485,4.6552,0,0,0,0,0,0,4.5737,4.5762,4.5808,4.5859,4.5883,4.6026,4.5961,4.5965,4.6005,4.5999,4.6057,4.6063,4.6071,4.6182,4.6202,4.6264,4.616,4.6467,4.6475,4.6483,4.6544,4.6559,4.6572,0,0,0,0,0,4.5728,4.5823,4.581,4.5831,4.594,4.603,4.6044,4.605,4.601,4.6057,4.6083,4.6061,4.6245,4.6193,4.6216,4.6281,4.6464,4.6473,4.6482,4.6538,4.6556,4.6572,0,0,0,0,0,0,4.5779,4.5829,4.5816,4.5929,4.5975,4.6023,4.6083,4.6069,4.6128,4.6121,4.6127,4.614,4.6248,4.6275,4.6216,4.6405,4.6349,4.6363,4.6383,4.6401,4.6415,4.6407,4.6167,0,0,0,0,0,4.5803,4.5869,4.591,4.6007,4.603,4.6053,4.6092,4.6092,4.6141,4.6161,4.6194,4.6244,4.6313,4.6358,4.6424,4.6547,4.6561,4.6604,4.6618,4.6629,4.6642,4.6713,4.6733,4.6518,4.6518,4.6517,0,0,4.5854,4.589,4.5931,4.6018,4.6054,4.6125,4.6069,4.6146,4.62,4.6173,4.6274,4.63,4.6356,4.6472,4.6524,4.6497,4.6704,4.6641,4.665,4.6657,4.6724,4.6745,4.6763,4.6524,4.6523,4.6522,0,0,4.5984,4.6016,4.6101,4.6138,4.6193,4.6207,4.6228,4.6279,4.6295,4.6395,4.6377,4.6442,4.656,4.6602,4.6639,4.6787,4.6771,4.6808,4.6882,4.6951,4.6968,4.6983,4.7038,4.7058,4.682,4.682,4.682,0,4.6041,4.6145,4.6147,4.6226,4.6266,4.6243,4.6331,4.6368,4.6442,4.6471,4.6439,4.6589,4.6625,4.6751,4.6787,4.6817,4.6843,4.6802,4.6965,4.698,4.6994,4.7047,4.7068,4.6825,4.6824,4.6824,4.6823,0,4.6214,4.6287,4.635,4.6421,4.6468,4.6551,4.6567,4.6615,4.6612,4.663,4.6735,4.6778,4.6853,4.6882,4.688,4.701,4.6992,4.6962,4.6907,4.7019,4.7069,4.7089,4.6831,4.6829,4.6828,4.6827,0,0,4.6379,4.6451,4.6474,4.6507,4.6566,4.6624,4.6708,4.678,4.6822,4.6874,4.6946,4.7047,4.7021,4.7063,4.7065,4.7125,4.7243,4.7089,4.7091,4.7119,4.7392,4.7415,4.7438,4.7232,4.7236,4.7239,4.7388,0,4.6516,4.666,4.6665,4.6798,4.6868,4.6848,4.6921,4.6967,4.6987,4.7051,4.7074,4.7146,4.7105,4.7131,4.7189,4.7216,4.7299,4.7205,4.7302,4.7306,4.7291,4.7464,4.7488,4.7627,4.7407,4.7411,4.7413,0,4.6694,4.6751,4.6891,4.6943,4.6972,4.7038,4.7106,4.7165,4.7218,4.7229,4.7276,4.727,4.7359,4.7299,4.7422,4.7359,4.7399,4.7418,4.7424,4.7435,4.7367,4.7482,4.7671,4.7693,4.7443,4.7441,4.7439,0,4.6804,4.6916,4.7015,4.7043,4.7105,4.7152,4.7181,4.7229,4.7273,4.7333,4.7362,4.7432,4.7471,4.7526,4.7541,4.7495,4.7665,4.7606,4.7679,4.7679,4.7717,4.7715,4.7918,4.7739,4.7739,4.7739,4.7738,0,4.6957,4.7044,4.7065,4.7126,4.7224,4.723,4.7328,4.7353,4.7397,4.7465,4.7452,4.7516,4.753,4.7598,4.7609,4.7712,4.7729,4.7742,4.7745,4.7745,4.7743,4.7772,4.7764,4.7744,4.7743,4.7742,4.7741,0,4.7097,4.7114,4.7221,4.7271,4.7285,4.7356,4.74,4.746,4.7478,4.7564,4.7585,4.7615,4.7695,4.7714,4.7809,4.7817,4.7938,4.7931,4.792,4.7921,4.7994,4.7988,4.8224,4.8257,4.8055,4.8057,4.8058,0,4.7194,4.7261,4.7318,4.7362,4.7392,4.7463,4.7507,4.7516,4.7564,4.763,4.7683,4.776,4.7823,4.7951,4.7983,4.8056,4.8052,4.813,4.8063,4.8062,4.8056,4.8053,4.8061,4.8143,4.8145,4.8147,4.8148,0,4.7367,4.7372,4.7436,4.7504,4.7558,4.7612,4.7663,4.77,4.7717,4.7771,4.7852,4.79,4.7997,4.8076,4.8149,4.8181,4.8169,4.8169,4.819,4.8192,4.8184,4.8192,4.7958,4.8164,4.8162,4.8161,4.816,4.816,4.7491,4.755,4.76,4.7672,4.7712,4.7761,4.782,4.7846,4.7913,4.7992,4.7993,4.8082,4.8135,4.8233,4.8269,4.834,4.8317,4.8347,4.8355,4.8363,4.8371,4.8171,4.8353,4.8353,4.8353,4.8352,4.8352,0,4.7665,4.7696,4.7762,4.7835,4.7893,4.7874,4.7931,4.7981,4.8058,4.8108,4.817,4.8264,4.8341,4.8379,4.8455,4.8505,4.8502,4.8525,4.8523,4.8531,4.8386,4.8361,4.8527,4.8527,4.8527,4.8527,4.8526,4.8526,4.7762,4.7862,4.7874,4.7995,4.8026,4.8111,4.8146,4.8192,4.8232,4.8337,4.84,4.8424,4.847,4.855,4.862,4.863,4.866,4.8687,4.8694,4.8558,4.8541,4.8524,4.85,4.8692,4.8693,4.8833,4.8834,4.8835]},{"header":{"parameterUnit":"m.s-1","parameterCategory":1,"la1":30.2991,"la2":30.254,"lo1":-89.0895,"lo2":-89.0444,"dx":0.0017,"dy":0.0017,"nx":28,"ny":28,"refTime":"2022-11-26T09:00:00:Z","depth":0,"parameterNumber":3,"parameterNumberName":"V-component_of_WINDS"},"data":[0,0,0,0,0,0,0,0,0,0,0,0,0,0,0,0,0,0,0,0,0,0,0,0,0,0,0,0,0,0,0,0,0,0,0,0,0,0,0,0,0,0,0,0,0,0,0,0,0,0,0,0,0,0,0,0,0,0,0.8622,0.8622,0,0.8634,0.8634,0.8634,0.8631,0.8631,0.8631,0.8631,0.8642,0.8642,0.8643,0,0,0,0,0,0,0,0,0,0,0,0,0,0.8594,0.8595,0.8622,0.8622,0.8622,0.8634,0.8634,0.8634,0.8631,0.8631,0.8631,0.863,0.8642,0.8642,0.8643,0,0,0,0,0,0,0,0,0,0,0,0,0,0.8606,0.8595,0.8622,0.8622,0.8622,0.8634,0.8634,0.8634,0.8631,0.8631,0.8631,0.863,0.8642,0.8642,0.8643,0.8655,0,0,0.8645,0.8646,0,0,0,0,0,0,0,0,0.8606,0.8607,0.8622,0.8622,0.8622,0.8631,0.8628,0.8641,0.8631,0.8628,0.8631,0.863,0.8638,0.8639,0.8642,0.8655,0.8656,0.8646,0.8646,0.8646,0.8647,0,0,0,0,0,0,0,0.8605,0.8607,0.8627,0.8622,0.8622,0.8621,0.8622,0.8631,0.8635,0.8628,0.8628,0.8629,0.8638,0.8642,0.8643,0.8656,0.8646,0.8646,0.8647,0.8647,0.8677,0.8677,0,0,0,0,0,0,0.8604,0.8606,0.8626,0.8627,0.8613,0.8622,0.8623,0.8628,0.8635,0.8635,0.863,0.8629,0.8641,0.8642,0.8643,0.8656,0.8646,0.8647,0.8648,0.8676,0.8677,0.8677,0,0,0,0,0,0,0.8604,0.8606,0.8626,0.8616,0.8619,0.8623,0.8628,0.8629,0.8632,0.8636,0.8637,0.8632,0.864,0.8642,0.8651,0.8656,0.8647,0.8648,0.8676,0.8677,0.8677,0.8683,0,0,0,0,0,0,0.8603,0.8606,0.8611,0.8617,0.8619,0.8635,0.8629,0.8629,0.8633,0.8633,0.8639,0.8639,0.864,0.865,0.8652,0.8657,0.8649,0.8676,0.8676,0.8677,0.8682,0.8683,0.8684,0,0,0,0,0,0.8602,0.8612,0.8611,0.8614,0.8626,0.8635,0.8637,0.8638,0.8634,0.8639,0.8641,0.8639,0.8655,0.8651,0.8653,0.8659,0.8675,0.8676,0.8677,0.8681,0.8683,0.8684,0,0,0,0,0,0,0.8607,0.8613,0.8612,0.8625,0.8629,0.8635,0.8641,0.8639,0.8645,0.8644,0.8645,0.8646,0.8656,0.8658,0.8654,0.8669,0.8665,0.8666,0.8668,0.8669,0.867,0.8669,0.8649,0,0,0,0,0,0.861,0.8617,0.8622,0.8633,0.8635,0.8637,0.8641,0.8641,0.8646,0.8648,0.8651,0.8655,0.8661,0.8665,0.8671,0.8682,0.8683,0.8687,0.8688,0.8689,0.869,0.8694,0.8695,0.868,0.868,0.868,0,0,0.8616,0.862,0.8625,0.8634,0.8637,0.8644,0.8639,0.8647,0.8651,0.8649,0.8658,0.866,0.8665,0.8675,0.8679,0.8677,0.8694,0.869,0.869,0.8691,0.8695,0.8696,0.8698,0.868,0.868,0.868,0,0,0.863,0.8634,0.8643,0.8646,0.8651,0.8652,0.8654,0.8659,0.866,0.8669,0.8667,0.8672,0.8683,0.8686,0.8689,0.8701,0.8699,0.8703,0.8709,0.8713,0.8714,0.8715,0.8719,0.872,0.8704,0.8704,0.8704,0,0.8636,0.8647,0.8647,0.8655,0.8658,0.8656,0.8664,0.8667,0.8674,0.8676,0.8673,0.8685,0.8688,0.8698,0.8701,0.8703,0.8705,0.8702,0.8714,0.8715,0.8716,0.8719,0.8721,0.8704,0.8704,0.8704,0.8704,0,0.8654,0.8661,0.8667,0.8673,0.8677,0.8685,0.8686,0.869,0.8689,0.869,0.8698,0.8701,0.8707,0.8709,0.8709,0.8718,0.8717,0.8714,0.8709,0.8718,0.8721,0.8722,0.8705,0.8705,0.8704,0.8704,0,0,0.8673,0.8678,0.868,0.8682,0.8686,0.8691,0.8698,0.8704,0.8706,0.8711,0.8716,0.8723,0.8721,0.8724,0.8723,0.8727,0.8735,0.8724,0.8724,0.8725,0.8744,0.8746,0.8748,0.8734,0.8734,0.8734,0.8744,0,0.8686,0.8699,0.8698,0.8709,0.8715,0.8712,0.8717,0.872,0.8721,0.8725,0.8726,0.8731,0.8728,0.8729,0.8733,0.8733,0.8739,0.8733,0.8738,0.8738,0.8736,0.8749,0.8751,0.876,0.8745,0.8745,0.8745,0,0.8704,0.8708,0.872,0.8722,0.8724,0.873,0.8733,0.8738,0.874,0.874,0.8743,0.8741,0.8747,0.8742,0.8749,0.8745,0.8746,0.8747,0.8747,0.8748,0.8742,0.8749,0.8763,0.8764,0.8747,0.8747,0.8747,0,0.8716,0.8724,0.8732,0.8734,0.8736,0.874,0.8741,0.8743,0.8746,0.8749,0.875,0.8754,0.8756,0.8758,0.8757,0.8754,0.8764,0.8759,0.8764,0.8764,0.8766,0.8766,0.878,0.8768,0.8768,0.8768,0.8768,0,0.8731,0.8738,0.8737,0.8741,0.8748,0.8747,0.8754,0.8755,0.8756,0.876,0.8758,0.8761,0.876,0.8763,0.8762,0.8768,0.8769,0.8768,0.8768,0.8768,0.8768,0.877,0.8769,0.8768,0.8768,0.8768,0.8768,0,0.8745,0.8745,0.8753,0.8754,0.8754,0.876,0.876,0.8764,0.8764,0.8769,0.877,0.877,0.8773,0.8772,0.8776,0.8775,0.8782,0.8781,0.8781,0.8781,0.8785,0.8784,0.88,0.8801,0.8789,0.8789,0.8789,0,0.8755,0.876,0.8761,0.8764,0.8765,0.8769,0.8771,0.877,0.8772,0.8774,0.8777,0.8781,0.8783,0.8789,0.8788,0.8791,0.879,0.8795,0.879,0.879,0.8789,0.8788,0.8788,0.8796,0.8796,0.8796,0.8796,0,0.8771,0.877,0.8774,0.8777,0.8779,0.8782,0.8784,0.8786,0.8784,0.8787,0.879,0.8792,0.8795,0.8798,0.88,0.88,0.8798,0.8798,0.8798,0.8799,0.8799,0.8798,0.8783,0.8797,0.8797,0.8797,0.8797,0.8797,0.8783,0.8787,0.8788,0.8792,0.8793,0.8794,0.8797,0.8797,0.88,0.8802,0.8801,0.8804,0.8805,0.8807,0.8808,0.881,0.8808,0.881,0.881,0.881,0.881,0.8798,0.881,0.881,0.881,0.881,0.881,0,0.8799,0.8799,0.8802,0.8805,0.8807,0.8804,0.8805,0.8807,0.8811,0.8811,0.8813,0.8816,0.8819,0.8818,0.8819,0.8821,0.882,0.8822,0.8821,0.8821,0.8813,0.8811,0.8823,0.8823,0.8823,0.8823,0.8823,0.8823,0.8807,0.8813,0.8812,0.8818,0.8818,0.8821,0.8822,0.8823,0.8823,0.8827,0.8828,0.8828,0.8827,0.8829,0.883,0.883,0.883,0.8832,0.8831,0.8823,0.8822,0.8821,0.882,0.8833,0.8833,0.884,0.884,0.884]}]]